Weather History for Morgantown, WV

Change the Weather History Date:

Saturday, June 29, 2013

  Actual Average Record
Temperature  
Mean Temperature 71 °F 72 °F  
Max Temperature 79 °F 83 °F 98 °F (2012)
Min Temperature 62 °F 62 °F 48 °F (1956)
Degree Days  
Heating Degree Days 0 0  
Month to date heating degree days 11 29  
Since 1 June heating degree days 11 29  
Since 1 July heating degree days 4910 5182  
Cooling Degree Days 6 8  
Month to date cooling degree days 159 153  
Year to date cooling degree days 305 220  
Since 1 June cooling degree days 159 153  
Growing Degree Days 20 (Base 50)    
Moisture  
Dew Point 62 °F    
Average Humidity 74    
Maximum Humidity 93    
Minimum Humidity 54    
Precipitation  
Precipitation 0.01 in 0.15 in 1.53 in (1957)
Month to date precipitation 4.78 3.97  
Year to date precipitation 17.42 21.16  
Sea Level Pressure  
Sea Level Pressure 29.64 in    
Wind  
Wind Speed 4 mph (SSW)    
Max Wind Speed 12 mph    
Max Gust Speed 17 mph    
Visibility 10 miles    
Events Rain    
T = Trace of Precipitation, MM = Missing Value Source: NWS Daily Summary

Daily Weather History Graph

Daily Weather History Graph

Search for Another Location

Airport:

Trip Planner

Search our weather history database for the weather conditions in past years. The results will help you decide how hot, cold, wet, or windy it might be!

Date:

Astronomy

Jun. 29, 2013 Rise Set
Actual Time 5:54 AM EDT 8:51 PM EDT
Civil Twilight 5:22 AM EDT 9:23 PM EDT
Nautical Twilight 4:41 AM EDT 10:04 PM EDT
Astronomical Twilight 3:53 AM EDT 10:52 PM EDT
Moon 12:20 AM EDT (6/29) 1:03 PM EDT (6/29)
Length of Visible Light 16h 01m
Length of Day
14h 56m
Waning Gibbous, 56% of the Moon is Illuminated
Jun 29
Waning Gibbous
Jun 30
Last Quarter
Jul 8
New
Jul 15
First Quarter
Jul 22
Full

Hourly Weather History & Observations

Time (EDT) Temp. Dew Point Humidity Pressure Visibility Wind Dir Wind Speed Gust Speed Precip Events Conditions
12:53 AM 64.0 °F 62.1 °F 93% 29.60 in 10.0 mi Calm Calm - N/A   Clear
1:18 AM 64.4 °F 62.6 °F 94% 29.63 in 10.0 mi SSW 6.9 mph - N/A   Mostly Cloudy
1:35 AM 64.4 °F 62.6 °F 94% 29.63 in 10.0 mi SSW 5.8 mph - N/A   Overcast
1:53 AM 64.0 °F 61.0 °F 90% 29.60 in 10.0 mi SSW 5.8 mph - N/A   Scattered Clouds
2:53 AM 63.0 °F 61.0 °F 93% 29.60 in 10.0 mi SSW 6.9 mph - N/A   Clear
3:53 AM 62.1 °F 60.1 °F 93% 29.59 in 10.0 mi SSW 5.8 mph - N/A   Clear
4:01 AM 62.6 °F 60.8 °F 94% 29.62 in 10.0 mi SSW 4.6 mph - N/A   Partly Cloudy
4:17 AM 62.6 °F 60.8 °F 94% 29.62 in 10.0 mi SSW 4.6 mph - N/A   Mostly Cloudy
4:53 AM 63.0 °F 61.0 °F 93% 29.60 in 10.0 mi SSW 5.8 mph - N/A   Overcast
5:53 AM 63.0 °F 61.0 °F 93% 29.61 in 10.0 mi Variable 5.8 mph - N/A   Overcast
6:53 AM 64.0 °F 61.0 °F 90% 29.62 in 10.0 mi Calm Calm - N/A   Overcast
7:53 AM 64.9 °F 61.0 °F 87% 29.64 in 10.0 mi Variable 4.6 mph - N/A   Mostly Cloudy
8:21 AM 66.2 °F 60.8 °F 83% 29.66 in 10.0 mi South 4.6 mph - N/A   Scattered Clouds
8:53 AM 66.9 °F 61.0 °F 81% 29.64 in 10.0 mi SSE 5.8 mph - N/A   Clear
9:53 AM 71.1 °F 61.0 °F 70% 29.65 in 10.0 mi Variable 6.9 mph - N/A   Clear
10:53 AM 73.9 °F 62.1 °F 66% 29.63 in 10.0 mi Variable 4.6 mph - N/A   Clear
11:53 AM 75.0 °F 60.1 °F 60% 29.64 in 10.0 mi Variable 5.8 mph - N/A   Scattered Clouds
12:53 PM 73.9 °F 61.0 °F 64% 29.65 in 10.0 mi SSW 5.8 mph - N/A   Mostly Cloudy
1:53 PM 78.1 °F 60.1 °F 54% 29.63 in 10.0 mi SSW 8.1 mph - N/A   Partly Cloudy
2:53 PM 77.0 °F 61.0 °F 58% 29.62 in 10.0 mi Variable 5.8 mph - N/A   Clear
3:53 PM 75.0 °F 62.1 °F 64% 29.64 in 10.0 mi SSW 4.6 mph - N/A   Mostly Cloudy
4:53 PM 75.0 °F 64.0 °F 69% 29.63 in 10.0 mi SSW 3.5 mph - 0.01 in Rain Light Rain
5:53 PM 73.0 °F 62.1 °F 68% 29.64 in 10.0 mi SSW 4.6 mph - 0.00 in   Mostly Cloudy
6:53 PM 72.0 °F 66.0 °F 81% 29.66 in 10.0 mi Calm Calm - 0.00 in Rain Light Rain
7:53 PM 71.1 °F 66.0 °F 84% 29.67 in 10.0 mi Calm Calm - 0.00 in   Scattered Clouds
8:53 PM 69.1 °F 66.9 °F 93% 29.69 in 10.0 mi Calm Calm - N/A   Mostly Cloudy
9:53 PM 68.0 °F 66.0 °F 93% 29.70 in 10.0 mi South 4.6 mph - N/A   Mostly Cloudy
10:53 PM 69.1 °F 64.9 °F 87% 29.71 in 10.0 mi Calm Calm - N/A   Partly Cloudy
11:53 PM 66.9 °F 64.0 °F 90% 29.71 in 10.0 mi Calm Calm - N/A   Scattered Clouds